(345058) = 2005 GY129 = 2012 TE223

Discovered at Kitt Peak on 2005-04-07 by Spacewatch.

Orbit

Orbit type: Main Belt

Note: WebGL enabled browser required.

epoch2023-09-13.0
epoch JD2460200.5
perihelion date2023-03-04.01718
perihelion JD2460007.51718
argument of perihelion (°)153.54874
ascending node (°)180.93710
inclination (°)10.30828
eccentricity0.2503850
perihelion distance (AU)2.3236540
Tisserand w.r.t. Jupiter3.1
ΔV w.r.t. Earth (km/sec)10.1
semimajor axis (AU)3.0997966
mean anomaly (°)34.85160
mean daily motion (°/day)0.18059430
aphelion distance (AU)3.876
period (years)5.46
P-vector [x]0.90236127
P-vector [y]-0.42030149
P-vector [z]-0.09534569
Q-vector [x]0.43097051
Q-vector [y]0.87847975
Q-vector [z]0.20624683
absolute magnitude16.13
phase slope0.15
uncertainty0
referenceMPEC 2024-A158
observations used285
oppositions15
arc length (days)8116
first opposition used2001
last opposition used2024
residual rms (arc-secs)0.77
perturbers coarse indicatorM-v
perturbers precise indicator003Ek
first observation date used2001-10-24.0
last observation date used2024-01-13.0
computer nameMPCLINUX
JD of orbit computation2456670.777116
perihelion JD uncertainty (days)1.2183E-04
argument of perihelion uncertainty (°)5.2724E-05
ascending node uncertainty (°)4.7389E-05
inclination uncertainty (°)1.0965E-05
eccentricity uncertainty 7.0170E-08
perihelion distance uncertainty (AU)2.0428E-07
Minimum Orbit Intersection Distances (in AU)
for orbit epoch: 2460200.5, reference: E2024-AF8
Mercury1.93407
Venus1.60544
Earth1.31899
Mars0.95845
Jupiter1.58009
Saturn5.44468
Uranus14.5935
Neptune26.6065

Observations

292 total observations over interval: 2001 10 24.40982 – 2024 01 13.150328
These data are available for download (format description).

Date (UT) J2000 RA J2000 Dec Magn Location Ref
2001 10 24.40982 02 22 22.11 +05 07 54.2 19.7   644 – Palomar Mountain/NEAT MPS 439473
2001 10 24.43090 02 22 21.12 +05 07 44.5 19.7   644 – Palomar Mountain/NEAT MPS 439473
2001 10 24.45224 02 22 20.12 +05 07 35.3 20.5   644 – Palomar Mountain/NEAT MPS 439473
2005 04 07.36410 14 25 37.10 -07 00 02.4 21.0 V 691 – Steward Observatory, Kitt Peak-Spacewatch MPS 131891
2005 04 07.38195 14 25 36.45 -06 59 55.8 20.9 V 691 – Steward Observatory, Kitt Peak-Spacewatch MPS 131891
2005 04 07.39993 14 25 35.76 -06 59 49.3 20.8 V 691 – Steward Observatory, Kitt Peak-Spacewatch MPS 131891
2005 04 14.33168 14 21 07.52 -06 16 26.6 20.7 V 691 – Steward Observatory, Kitt Peak-Spacewatch MPS 131891
2005 04 14.35192 14 21 06.67 -06 16 18.7 21.1 V 691 – Steward Observatory, Kitt Peak-Spacewatch MPS 131891
2005 04 14.37215 14 21 05.83 -06 16 11.3 20.8 V 691 – Steward Observatory, Kitt Peak-Spacewatch MPS 131891
2005 04 15.35431 14 20 25.52 -06 09 59.1 21.0 V 691 – Steward Observatory, Kitt Peak-Spacewatch MPS 132683
2005 04 15.36175 14 20 25.21 -06 09 56.4 21.0 V 691 – Steward Observatory, Kitt Peak-Spacewatch MPS 132683
2005 04 15.36916 14 20 24.90 -06 09 53.7 21.2 V 691 – Steward Observatory, Kitt Peak-Spacewatch MPS 132683
2005 04 18.31003 14 18 21.66 -05 51 20.9 21.1 V 691 – Steward Observatory, Kitt Peak-Spacewatch MPS 132683
2005 04 18.33136 14 18 20.68 -05 51 12.7 21.1 V 691 – Steward Observatory, Kitt Peak-Spacewatch MPS 132683
2005 04 18.37360 14 18 18.87 -05 50 56.9 20.5 V 691 – Steward Observatory, Kitt Peak-Spacewatch MPS 132683
2006 08 16.21354 21 17 23.66 -03 42 14.0 18.7 R 644 – Palomar Mountain/NEAT MPS 435053
2006 08 16.23404 21 17 22.82 -03 42 23.5 18.8 R 644 – Palomar Mountain/NEAT MPS 435053
2006 08 16.25578 21 17 21.94 -03 42 33.6 19.3 R 644 – Palomar Mountain/NEAT MPS 435053
2006 09 14.18415 21 04 10.74 -07 44 51.0 20.0 V 703 – Catalina Sky Survey MPS 435053
2006 09 14.19058 21 04 10.70 -07 44 53.8 19.8 V 703 – Catalina Sky Survey MPS 435053
2006 09 14.19703 21 04 10.56 -07 44 57.3 19.4 V 703 – Catalina Sky Survey MPS 435053
2006 09 14.20343 21 04 10.48 -07 45 01.2 19.1 V 703 – Catalina Sky Survey MPS 435053
2006 11 17.07238 21 45 04.32 -10 57 31.5 21.0 V G96 – Mt. Lemmon Survey MPS 439473
2006 11 17.07892 21 45 04.82 -10 57 30.3 20.5 V G96 – Mt. Lemmon Survey MPS 439473
2006 11 17.08554 21 45 05.36 -10 57 30.1 21.0 V G96 – Mt. Lemmon Survey MPS 439473
2006 11 17.09227 21 45 05.79 -10 57 28.6 20.8 V G96 – Mt. Lemmon Survey MPS 439473
2008 01 01.28714 05 06 40.03 +08 37 09.3 20.9 V G96 – Mt. Lemmon Survey MPS 439473
2008 01 01.29392 05 06 39.78 +08 37 10.6 20.7 V G96 – Mt. Lemmon Survey MPS 439473
2008 01 01.30076 05 06 39.45 +08 37 10.5 20.5 V G96 – Mt. Lemmon Survey MPS 439473
2008 01 01.30759 05 06 39.20 +08 37 11.1 21.1 V G96 – Mt. Lemmon Survey MPS 439473
2011 05 23.40095 17 14 42.79 -08 11 40.3 20.2 V G96 – Mt. Lemmon Survey MPS 435053
2011 05 23.40839 17 14 42.46 -08 11 38.4 19.5 V G96 – Mt. Lemmon Survey MPS 435053
2011 05 23.41587 17 14 42.18 -08 11 36.7 20.1 V G96 – Mt. Lemmon Survey MPS 435053
2011 05 23.42335 17 14 41.85 -08 11 34.9 19.9 V G96 – Mt. Lemmon Survey MPS 435053
2011 06 03.25538 17 06 38.37 -07 31 21.7 20.3 R 926 – Tenagra II Observatory, Nogales MPS 435053
2011 06 03.26965 17 06 37.69 -07 31 19.4 19.7 R 926 – Tenagra II Observatory, Nogales MPS 435053
2011 06 03.28653 17 06 36.86 -07 31 16.4 19.8 R 926 – Tenagra II Observatory, Nogales MPS 435053
2011 07 02.24918 16 44 43.69 -06 57 07.7 19.8 V G96 – Mt. Lemmon Survey MPS 435053
2011 07 02.25677 16 44 43.40 -06 57 07.9 19.8 V G96 – Mt. Lemmon Survey MPS 435053
2011 07 02.26429 16 44 43.11 -06 57 08.6 19.9 V G96 – Mt. Lemmon Survey MPS 435053
2011 07 02.27184 16 44 42.82 -06 57 08.7 19.7 V G96 – Mt. Lemmon Survey MPS 435053
2012 09 17.29942 02 43 41.56 +09 41 23.7 19.7 R H15 – ISON-NM Observatory, Mayhill MPS 435053
2012 09 17.31410 02 43 41.41 +09 41 18.4 19.7 R H15 – ISON-NM Observatory, Mayhill MPS 435053
2012 09 17.32888 02 43 41.35 +09 41 13.6 19.6 R H15 – ISON-NM Observatory, Mayhill MPS 435053
2012 09 17.34380 02 43 41.29 +09 41 09.3 19.8 R H15 – ISON-NM Observatory, Mayhill MPS 435053
2012 10 07.98934 02 36 44.35 +07 13 43.4 19.7   A14 – Les Engarouines Observatory MPS 435053
2012 10 08.01097 02 36 43.61 +07 13 34.0 19.8   A14 – Les Engarouines Observatory MPS 435053
2012 10 08.03239 02 36 42.80 +07 13 23.9 20.3   A14 – Les Engarouines Observatory MPS 435053
2012 10 14.44563 02 32 43.64 +06 22 07.9 19.6 R 926 – Tenagra II Observatory, Nogales MPS 435692
2012 10 14.45958 02 32 43.06 +06 22 01.4 19.6 R 926 – Tenagra II Observatory, Nogales MPS 435692
2012 10 14.47355 02 32 42.47 +06 21 54.7 19.9 R 926 – Tenagra II Observatory, Nogales MPS 435692
2012 10 15.43332 02 32 03.62 +06 14 13.1 19.5 V G96 – Mt. Lemmon Survey MPS 435692
2012 10 15.44058 02 32 03.30 +06 14 09.6 19.3 V G96 – Mt. Lemmon Survey MPS 435692
2012 10 15.44777 02 32 02.97 +06 14 06.2 19.3 V G96 – Mt. Lemmon Survey MPS 435692
2012 10 15.45507 02 32 02.68 +06 14 02.8 19.6 V G96 – Mt. Lemmon Survey MPS 435692
2012 10 18.384582 02 30 00.186 +05 50 42.28 19.6 w F51 – Pan-STARRS 1, Haleakala MPS 435053
2012 10 18.414885 02 29 58.826 +05 50 27.90 19.6 w F51 – Pan-STARRS 1, Haleakala MPS 435053
2012 10 18.430153 02 29 58.142 +05 50 20.63 19.5 w F51 – Pan-STARRS 1, Haleakala MPS 435053
2012 10 26.24117 02 24 11.37 +04 50 09.9 19.5 V G96 – Mt. Lemmon Survey MPS 437872
2012 10 26.24576 02 24 11.23 +04 50 09.1 18.5 V G96 – Mt. Lemmon Survey MPS 437872
2012 10 26.25038 02 24 10.94 +04 50 05.9 19.5 V G96 – Mt. Lemmon Survey MPS 437872
2012 10 26.25492 02 24 10.76 +04 50 03.9 19.4 V G96 – Mt. Lemmon Survey MPS 437872
2012 11 06.292864 02 15 59.075 +03 35 33.67 19.7 w F51 – Pan-STARRS 1, Haleakala MPS 439473
2012 11 06.307769 02 15 58.414 +03 35 28.35 19.8 w F51 – Pan-STARRS 1, Haleakala MPS 439473
2012 11 06.337653 02 15 57.091 +03 35 17.66 19.7 w F51 – Pan-STARRS 1, Haleakala MPS 439473
2012 11 16.33697 02 09 27.139 +02 44 15.51 20.0 w F51 – Pan-STARRS 1, Haleakala MPS 443374
2012 11 16.35082 02 09 26.631 +02 44 12.09 19.9 w F51 – Pan-STARRS 1, Haleakala MPS 443374
2012 11 16.36464 02 09 26.127 +02 44 08.56 19.9 w F51 – Pan-STARRS 1, Haleakala MPS 443374
2012 11 16.37848 02 09 25.625 +02 44 05.14 20.0 w F51 – Pan-STARRS 1, Haleakala MPS 443374
2014 01 04.22846 07 40 58.13 +08 08 45.0 21.3 V G96 – Mt. Lemmon Survey MPS 496523
2014 01 04.23485 07 40 57.78 +08 08 45.6 21.5 V G96 – Mt. Lemmon Survey MPS 496523
2014 01 04.24123 07 40 57.55 +08 08 46.7 21.1 V G96 – Mt. Lemmon Survey MPS 496523
2014 01 04.24762 07 40 57.24 +08 08 47.6 21.7 V G96 – Mt. Lemmon Survey MPS 496523
2015 03 15.37826 10 38 55.992 +04 02 15.84 21.7 w F51 – Pan-STARRS 1, Haleakala MPS 592017
2015 03 15.39060 10 38 55.493 +04 02 20.04 21.4 w F51 – Pan-STARRS 1, Haleakala MPS 592017
2016 02 10.58001 14 36 27.097 -10 36 44.51 22.0 w F51 – Pan-STARRS 1, Haleakala MPS 682197
2016 02 10.60256 14 36 27.688 -10 36 43.44 22.0 w F51 – Pan-STARRS 1, Haleakala MPS 682197
2016 03 13.54442 14 41 28.196 -09 15 27.59 21.6 w F51 – Pan-STARRS 1, Haleakala MPS 695688
2016 03 13.56927 14 41 27.948 -09 15 21.29 21.8 w F51 – Pan-STARRS 1, Haleakala MPS 695688
2016 03 13.58169 14 41 27.800 -09 15 18.09 21.5 w F51 – Pan-STARRS 1, Haleakala MPS 695688
2016 04 15.34782 14 26 46.63 -06 13 25.1 21.5 V G96 – Mt. Lemmon Survey MPS 703549
2016 04 15.35408 14 26 46.34 -06 13 23.1 21.2 V G96 – Mt. Lemmon Survey MPS 703549
2016 04 15.36036 14 26 46.13 -06 13 21.5 20.3 V G96 – Mt. Lemmon Survey MPS 703549
2016 04 15.36662 14 26 45.85 -06 13 18.3 20.5 V G96 – Mt. Lemmon Survey MPS 703549
2016 04 15.39561 14 26 44.62 -06 13 07.2 20.4 V G96 – Mt. Lemmon Survey MPS 703549
2016 04 15.39667 14 26 44.53 -06 13 07.1 20.6 V G96 – Mt. Lemmon Survey MPS 703549
2016 04 15.39773 14 26 44.52 -06 13 06.6 20.6 V G96 – Mt. Lemmon Survey MPS 703549
2016 04 15.39879 14 26 44.46 -06 13 06.0 20.7 V G96 – Mt. Lemmon Survey MPS 703549
2016 05 01.24332 14 15 15.70 -04 36 11.0 21.1 V W84 – Cerro Tololo-DECam MPS 789876
2016 05 01.24652 14 15 15.55 -04 36 09.9   W84 – Cerro Tololo-DECam MPS 789876
2016 05 01.24972 14 15 15.40 -04 36 08.8   W84 – Cerro Tololo-DECam MPS 789876
